EW2263 Weather Reports


time (UTC)temp
C
wind
direction
speed
KPH
gust
KPH
rain 1hr
cm
rain 24hr
cm
rain mn
cm
humidity
%
barometer
mb
20260509181557 22 209 4.8 0.0 0.00 0.00 0.00 71 1006.5
20260509180058 22 255 4.8 0.0 0.00 0.00 0.00 75 1006.8
20260509174550 22 236 3.2 0.0 0.00 0.00 0.00 73 1006.9
20260509173048 22 151 4.8 0.0 0.00 0.00 0.00 78 1007.2
20260509171543 21 223 4.8 0.0 0.00 0.00 0.00 78 1007.7
20260509170039 20 336 3.2 0.0 0.00 0.00 0.00 81 1007.8
20260509164537 20 178 3.2 0.0 0.00 0.00 0.00 79 1007.8
20260509163043 19 257 3.2 0.0 0.00 0.00 0.00 80 1008.2
20260509161534 19 12 1.6 0.0 0.00 0.00 0.00 80 1008.1
20260509160035 19 178 0.0 0.0 0.00 0.00 0.00 80 1008.4
20260509154540 19 44 1.6 0.0 0.00 0.00 0.00 80 1008.5
20260509153032 18 149 1.6 0.0 0.00 0.00 0.00 81 1008.6
20260509151529 18 281 1.6 0.0 0.00 0.00 0.00 82 1008.6
20260509150029 18 355 1.6 0.0 0.00 0.00 0.00 82 1008.5
20260509144528 18 36 1.6 0.0 0.00 0.00 0.00 81 1008.3
20260509143028 18 151 1.6 0.0 0.00 0.00 0.00 83 1008.1
20260509141536 18 79 1.6 0.0 0.00 0.00 0.00 84 1008.1
20260509140022 17 186 3.2 0.0 0.00 0.00 0.00 85 1008.1
20260509134519 17 112 1.6 0.0 0.00 0.00 0.00 88 1008.0
20260509133016 16 183 1.6 0.0 0.00 0.00 0.00 91 1007.9
20260509131513 16 188 1.6 0.0 0.00 0.00 0.00 94 1008.0
20260509130011 15 140 0.0 0.0 0.00 0.00 0.00 96 1008.3
20260509124507 15 80 0.0 0.0 0.00 0.00 0.00 97 1008.5
20260509123004 14 55 0.0 0.0 0.00 0.00 0.00 97 1008.8
20260509121502 14 70 0.0 0.0 0.00 0.00 0.00 97 1009.1
20260509120001 13 249 0.0 0.0 0.00 0.00 0.00 97 1008.9
20260509114501 13 249 0.0 0.0 0.00 0.00 0.00 97 1008.7
20260509113129 12 138 0.0 0.0 0.00 0.00 0.00 96 1008.5
20260509111605 12 232 0.0 0.0 0.00 0.00 0.00 96 1008.6
20260509110159 12 230 0.0 0.0 0.00 0.00 0.00 96 1008.5
20260509104558 12 226 0.0 0.0 0.00 0.00 0.00 96 1008.4
20260509103058 12 226 0.0 0.0 0.00 0.00 0.00 96 1008.7
20260509101552 11 226 0.0 0.0 0.00 0.00 0.00 96 1008.7
20260509100109 11 226 0.0 0.0 0.00 0.00 0.00 96 1008.6
20260509094554 11 226 0.0 0.0 0.00 0.00 0.00 94 1008.2
20260509093050 10 226 0.0 0.0 0.00 0.00 0.00 93 1008.0
20260509091603 10 226 0.0 0.0 0.00 0.00 0.00 93 1008.0
20260509090051 10 226 0.0 0.0 0.00 0.00 0.00 92 1008.0
20260509084547 10 226 0.0 0.0 0.00 0.00 0.00 92 1008.2
20260509083047 10 226 0.0 0.0 0.00 0.00 0.00 92 1007.9
20260509081556 10 226 0.0 0.0 0.00 0.00 0.00 92 1008.0
20260509080050 10 226 0.0 0.0 0.00 0.00 0.00 92 1008.1
20260509074545 10 226 0.0 0.0 0.00 0.00 0.00 92 1008.3
20260509073046 10 226 0.0 0.0 0.00 0.00 0.00 91 1008.2
20260509071540 11 226 0.0 0.0 0.00 0.00 0.00 91 1008.4
20260509070038 11 226 0.0 0.0 0.00 0.00 0.00 91 1008.6
20260509064534 11 226 0.0 0.0 0.00 0.00 0.00 91 1009.0
20260509063036 11 226 0.0 0.0 0.00 0.00 0.00 90 1009.3
20260509061541 11 226 0.0 0.0 0.00 0.00 0.00 90 1009.4
20260509060031 12 226 0.0 0.0 0.00 0.00 0.00 90 1009.5
20260509054524 12 226 0.0 0.0 0.00 0.00 0.00 90 1009.8
20260509053039 12 226 0.0 0.0 0.00 0.00 0.00 90 1009.8
20260509051520 12 226 0.0 0.0 0.00 0.00 0.00 89 1009.9
20260509050018 12 226 0.0 0.0 0.00 0.00 0.00 88 1010.1
20260509044514 13 226 0.0 0.0 0.00 0.00 0.00 88 1010.3
20260509043011 13 226 0.0 0.0 0.00 0.00 0.00 88 1010.6
20260509041510 13 226 0.0 0.0 0.00 0.00 0.00 87 1010.4
20260509040008 14 226 0.0 0.0 0.00 0.00 0.00 87 1010.8
20260509034506 14 226 0.0 0.0 0.00 0.00 0.00 87 1011.1
20260509033006 14 226 0.0 0.0 0.00 0.00 0.00 87 1011.1
20260509031505 14 226 0.0 0.0 0.00 0.00 0.00 86 1011.0
20260509030006 14 226 0.0 0.0 0.00 0.00 0.00 85 1011.0
20260509024504 14 226 0.0 0.0 0.00 0.00 0.00 84 1010.9
20260509023005 15 226 0.0 0.0 0.00 0.00 0.00 82 1010.9
20260509021504 15 226 0.0 0.0 0.00 0.00 0.00 81 1010.8
20260509020003 15 226 0.0 0.0 0.00 0.00 0.00 81 1011.1
20260509014506 15 226 0.0 0.0 0.00 0.00 0.00 79 1011.0
20260509013003 16 226 0.0 0.0 0.00 0.00 0.00 78 1010.7
20260509011502 16 226 0.0 0.0 0.00 0.00 0.00 77 1010.4
20260509010001 16 226 0.0 0.0 0.00 0.00 0.00 76 1010.5
20260509004500 17 226 0.0 0.0 0.00 0.00 0.00 74 1010.4
20260509003108 17 240 0.0 0.0 0.00 0.00 0.00 73 1010.4
20260509001600 17 196 0.0 0.0 0.00 0.00 0.00 70 1010.4
20260509000106 18 202 1.6 0.0 0.00 0.00 0.00 69 1010.1
20260508234559 18 149 0.0 0.0 0.00 0.00 0.00 67 1010.0
20260508233107 19 231 1.6 0.0 0.00 0.00 0.00 66 1010.1
20260508231635 20 134 1.6 0.0 0.00 0.00 0.00 62 1010.2
20260508230018 20 108 1.6 0.0 0.00 0.00 0.00 64 1010.0
20260508224524 20 83 1.6 0.0 0.00 0.00 0.00 63 1010.0
20260508223033 20 13 1.6 0.0 0.00 0.00 0.00 62 1010.1
20260508221516 20 211 3.2 0.0 0.00 0.00 0.00 59 1010.1
20260508220019 21 146 1.6 0.0 0.00 0.00 0.00 58 1009.9
20260508214515 21 170 1.6 0.0 0.00 0.00 0.00 57 1009.8
20260508213015 21 349 1.6 0.0 0.00 0.00 0.00 57 1009.9
20260508211515 21 143 1.6 0.0 0.00 0.00 0.00 56 1010.1
20260508210014 21 230 3.2 0.0 0.00 0.00 0.00 57 1009.9
20260508204515 21 136 3.2 0.0 0.00 0.00 0.00 56 1010.0
20260508203015 21 293 1.6 0.0 0.00 0.00 0.00 54 1009.9
20260508201516 22 347 1.6 0.0 0.00 0.00 0.00 56 1010.2
20260508200013 22 156 3.2 0.0 0.00 0.00 0.00 53 1010.4
20260508194512 22 186 3.2 0.0 0.00 0.00 0.00 50 1010.7
20260508193012 23 255 3.2 0.0 0.00 0.00 0.00 52 1010.9
20260508191528 23 121 3.2 0.0 0.00 0.00 0.00 49 1011.1
20260508190008 22 273 3.2 0.0 0.00 0.00 0.00 54 1011.2
20260508184507 22 212 3.2 0.0 0.00 0.00 0.00 53 1011.5